SUR4091 SBJP-SBCF

Flight info

Callsign SUR4091
Flight time N/A
Altitude 38000
Route UDOSA UZ21 OPTEB
Aircraft A20N/M-SDE2E3FGHIRWXY/LB1

Departure

Time 2026-05-04 16:35
Airport Presidente Castro Pinto International Airport (SBJP)

Arrival

Time N/A
Airport Tancredo Neves International Airport (SBCF)
Time Latitude Longitude Altitude Speed Heading
2026-05-04 16:04 -7.14677 -34.94842 217 ft 0 kts 45°
2026-05-04 16:24 -7.14728 -34.94872 219 ft 2 kts 316°
2026-05-04 16:25 -7.14752 -34.94848 218 ft 2 kts 314°
2026-05-04 16:26 -7.14773 -34.94828 224 ft 0 kts 315°
2026-05-04 16:28 -7.14761 -34.94840 219 ft 4 kts 309°
2026-05-04 16:28 -7.14732 -34.94954 219 ft 10 kts 311°
2026-05-04 16:29 -7.14787 -34.95071 220 ft 7 kts 225°
2026-05-04 16:30 -7.14642 -34.95276 215 ft 21 kts 316°
2026-05-04 16:31 -7.14518 -34.95400 215 ft 3 kts 315°
2026-05-04 16:31 -7.14368 -34.95552 219 ft 16 kts 315°
2026-05-04 16:32 -7.14078 -34.95805 220 ft 17 kts 346°
2026-05-04 16:33 -7.14072 -34.95847 220 ft 7 kts 138°
2026-05-04 16:33 -7.14085 -34.95835 220 ft 0 kts 135°
2026-05-04 16:34 -7.14423 -34.95498 214 ft 95 kts 135°
2026-05-04 16:34 -7.15016 -34.94899 223 ft 143 kts 134°
2026-05-04 16:35 -7.17410 -34.92422 1561 ft 180 kts 135°
2026-05-04 16:35 -7.20227 -34.89553 2973 ft 219 kts 139°
2026-05-04 16:36 -7.21395 -34.88430 3414 ft 244 kts 137°
2026-05-04 16:36 -7.23912 -34.85927 5207 ft 259 kts 136°
2026-05-04 16:37 -7.26505 -34.83314 7088 ft 271 kts 136°
2026-05-04 16:37 -7.27858 -34.81954 8010 ft 275 kts 135°